Powrót do katalogu

STARLINK-34512

AktywnyŁącznośćVLEO
NORAD 64419·PAYLOAD·🇺🇸 United States

Wystrzelony Jun 17, 2025 z Vandenberg Space Force Base

Loading…

Następne Przeloty (najbliższe 24 godziny)

TLE

ŚwieżeSource: CelesTrak SupGP

Epoka: Sep 15, 2026, 03:14 UTC

1 64419C 25129H   26258.13520833  .00036806  00000+0  12804-2 0  2588
2 64419  69.9990 314.9239 0003530 267.2637   8.7114 15.29559300    14

Śledź STARLINK-34512 w czasie rzeczywistym z AllMySat

Download on the App Store